GFSNIL_850_spd_057.txt.gz
Wind_Speed
38 35 33 32 29 25 26 27 25 22 19 17 14 11 11 11 12 11 10 12 10 10
41 38 35 33 30 27 24 22 22 23 21 19 17 14 12 12 12 12 12 11 11 11
43 38 35 32 31 31 24 21 20 21 21 20 20 18 17 16 14 14 14 15 14 13
44 42 38 35 31 31 28 24 22 22 23 23 22 21 21 19 18 17 17 17 17 16
43 41 40 37 34 31 30 27 24 24 26 25 24 24 23 22 20 20 19 17 17 17
46 44 41 39 36 34 32 30 27 27 27 28 28 28 26 25 23 22 22 20 20 19
47 45 42 39 37 34 33 32 30 29 30 29 29 29 29 28 27 27 26 25 24 24
43 43 43 42 38 34 33 32 32 32 31 31 32 31 32 31 31 31 30 28 27 26
40 40 40 40 39 37 34 33 34 35 34 33 35 35 33 33 34 33 33 33 31 29
39 39 38 36 38 39 37 35 36 36 36 36 36 36 35 34 36 37 36 36 35 34
38 37 35 36 37 36 37 36 35 36 36 37 37 36 36 36 37 40 40 40 39 39
37 36 36 36 36 35 35 35 36 35 36 37 36 35 33 34 37 41 42 42 42 42
33 30 30 30 31 31 32 32 33 34 35 35 34 32 31 31 34 38 40 41 42 42
35 35 33 30 31 32 33 33 33 34 33 33 32 32 31 31 34 37 37 37 36 35

GFSNIL_850_spd_060.txt.gz
Wind_Speed
37 30 27 24 20 18 17 16 15 16 16 14 12 11 11 8 8 8 7 11 10 8
40 38 28 27 24 22 19 17 17 17 17 17 15 15 13 10 10 10 8 9 10 9
43 41 39 30 30 25 21 22 19 18 19 18 17 18 17 13 12 11 9 10 12 10
41 41 41 37 35 32 28 26 22 21 19 19 18 19 21 18 15 13 12 12 13 13
43 43 37 41 38 34 31 29 25 24 22 22 21 20 21 21 17 17 16 15 15 15
44 42 41 42 39 36 33 30 29 28 27 25 24 23 23 24 21 20 18 17 17 16
48 47 45 44 42 38 35 32 31 31 30 28 26 25 24 23 25 25 21 20 20 19
47 47 46 45 42 39 37 34 33 32 32 30 29 26 27 26 25 26 25 23 22 23
48 48 47 46 43 41 38 36 34 35 35 34 31 29 31 30 27 26 26 27 27 28
49 49 47 45 44 44 41 38 36 37 36 36 35 33 32 32 32 27 29 31 30 28
46 47 46 45 44 43 41 40 39 39 38 37 37 36 34 33 33 35 37 35 33 35
45 45 45 44 45 43 41 40 40 39 39 39 39 38 36 34 35 38 40 40 40 41
45 43 43 43 42 41 40 39 37 37 38 39 39 37 36 34 35 37 38 39 41 43
40 41 39 39 37 37 37 34 37 35 36 37 37 37 36 34 36 36 31 30 30 29

GFSNIL_850_spd_063.txt.gz
Wind_Speed
38 26 25 23 20 19 16 15 12 15 13 11 10 7 9 7 8 9 10 11 13 7
40 36 27 25 25 20 20 16 17 14 13 14 13 12 12 9 9 10 10 9 12 12
42 40 35 31 27 25 21 22 14 17 17 16 17 15 15 11 12 12 10 9 13 10
40 38 41 36 34 31 25 22 24 21 18 18 18 18 19 18 13 13 11 13 12 13
41 39 37 43 41 33 31 29 25 23 23 20 19 19 20 19 18 17 14 15 16 15
42 43 42 40 42 38 36 33 26 26 25 23 21 23 23 21 20 20 18 19 19 18
46 45 43 42 41 41 39 36 32 30 28 26 24 23 23 23 22 22 20 21 21 21
47 45 42 43 42 43 40 39 35 33 31 30 26 24 25 26 24 23 22 22 22 22
44 45 45 44 45 44 44 42 38 37 35 33 29 27 28 27 25 26 25 24 24 25
44 46 48 47 47 47 46 43 42 39 37 37 37 32 30 29 29 25 26 26 26 24
44 46 47 46 48 47 45 45 44 42 40 39 39 37 35 33 31 31 31 30 29 30
48 46 46 49 50 49 47 46 45 44 42 41 41 38 35 34 34 35 35 33 34 36
45 44 45 48 51 52 49 47 43 42 43 42 41 40 38 36 34 31 32 34 36 37
43 44 42 40 41 47 49 36 42 36 39 41 41 40 39 38 38 34 29 30 29 29

GFSNIL_850_spd_069.txt.gz
Wind_Speed
35 35 29 24 20 21 14 15 13 12 11 9 9 10 9 12 15 17 14 14 14 12
37 38 36 31 25 22 18 14 18 17 15 13 8 11 9 10 12 14 16 16 18 17
43 38 39 36 30 30 25 25 14 21 20 15 10 13 11 10 11 11 11 11 12 19
48 43 39 40 36 32 32 28 21 17 20 16 13 13 14 12 12 10 10 9 11 13
47 48 44 41 40 37 33 31 27 24 20 20 18 15 18 17 16 17 14 15 15 16
43 47 49 45 43 42 37 35 33 26 26 25 24 20 18 20 18 22 21 15 14 18
46 44 46 48 46 44 42 39 39 36 33 33 31 28 24 22 21 20 25 22 19 19
44 43 42 43 45 46 45 44 42 40 39 36 32 30 27 25 24 22 22 24 26 24
43 41 42 42 43 42 47 47 44 44 43 40 37 34 30 27 26 25 25 23 22 24
45 43 41 43 43 42 42 44 47 44 43 42 40 37 33 29 27 25 25 25 23 22
48 45 41 40 44 43 42 41 43 45 45 43 42 38 35 31 29 28 26 26 25 24
49 46 43 41 42 43 44 43 42 42 42 42 41 38 36 34 33 34 33 31 30 29
49 47 45 43 42 42 42 42 43 44 43 42 41 39 37 35 35 36 37 36 35 34
49 46 46 43 43 43 43 41 43 43 44 43 41 39 37 36 37 38 37 38 37 36

GFSNIL_850_spd_072.txt.gz
Wind_Speed
38 34 31 26 27 24 23 17 12 13 15 12 11 14 15 16 19 18 17 14 12 10
39 39 36 29 25 27 22 19 18 15 15 14 10 10 12 16 16 19 19 18 16 16
40 40 40 35 27 29 24 20 19 21 19 18 15 12 14 15 16 18 17 18 20 21
43 42 42 40 35 29 28 26 25 20 21 24 20 14 15 16 14 17 16 15 15 17
42 44 43 44 42 36 33 30 29 27 21 25 24 18 15 16 17 16 17 15 14 14
42 45 48 46 46 43 38 34 34 33 29 23 26 22 17 16 17 17 18 17 16 14
45 43 46 48 47 46 45 41 37 34 33 30 28 25 21 19 17 18 20 21 20 18
48 44 42 44 49 49 48 47 44 41 38 33 31 31 30 27 24 22 21 23 25 24
49 47 46 43 43 47 51 51 49 48 44 43 39 35 32 30 27 24 24 24 24 24
47 46 45 46 43 44 46 48 53 52 49 47 45 43 40 35 31 29 27 27 25 25
46 46 42 43 43 41 41 43 46 50 53 50 48 45 43 39 36 32 30 28 26 24
39 43 46 44 44 41 37 39 42 45 46 50 49 44 41 39 39 36 34 31 29 27
18 38 49 48 46 43 39 35 37 41 43 45 45 44 41 40 39 38 37 35 33 31
32 36 47 54 52 48 42 39 38 39 38 39 40 40 38 36 36 38 38 38 37 34

GFSNIL_850_spd_075.txt.gz
Wind_Speed
34 33 30 25 22 22 20 16 13 13 15 10 10 12 14 14 16 17 15 14 11 8
33 37 34 29 24 21 21 20 17 16 13 15 14 13 15 15 16 18 17 16 15 12
29 34 37 34 30 26 23 26 22 20 18 15 14 14 14 15 16 18 20 20 19 17
27 31 34 36 35 31 23 24 25 22 22 19 18 17 15 15 16 18 18 19 19 21
32 28 33 36 38 36 31 25 24 23 22 20 19 22 21 17 18 18 18 17 18 18
39 34 30 34 37 39 37 32 28 28 27 25 23 22 25 21 17 19 18 18 18 17
41 39 34 31 35 39 41 40 36 33 31 30 27 25 23 23 21 18 19 19 21 21
43 41 37 34 33 36 41 43 43 40 37 33 31 31 30 27 25 22 20 20 21 22
39 39 42 38 35 35 37 42 44 45 44 41 38 34 32 31 30 28 26 25 24 23
38 38 38 38 38 38 38 37 41 46 47 47 46 42 38 37 34 33 31 29 28 26
35 35 33 35 34 35 39 40 40 41 45 50 51 48 46 42 41 41 39 37 34 31
27 31 30 32 29 32 36 37 38 40 41 45 48 50 49 47 45 45 45 42 39 36
26 29 34 33 30 28 33 35 35 35 35 40 43 45 45 45 47 47 46 45 43 39
25 20 23 24 26 31 34 35 37 37 36 34 36 41 41 41 41 45 45 45 45 42